When you browse on this site, cookies collect data to enhance your experience and personalize the content and advertising you see.
Visit our Privacy Policy to learn more. By continuing to use the site, you agree to this use of cookies and data.
  • In Czech Republic
  • List of Countries
  • For 7 days
  • Water Temperature
  • Satellite Maps
  • Weather Map
  • Weather Widgets
  • user-avatar
    Login

    Hourly Weather Alcobendas

    Today, 16 December, Sunday

    Time Temperature Precipitation Wind Pressure Humidity
    00:00 +7°C° 0 mm 3 mps 706 mmHg 94%
    01:00 +7°C° 0.1 mm 3 mps 705 mmHg 94%
    02:00 +7°C° 0.1 mm 3 mps 705 mmHg 93%
    03:00 +7°C° 0.1 mm 3 mps 705 mmHg 93%
    04:00 +7°C° 0.1 mm 3 mps 704 mmHg 93%
    05:00 +6°C° 0.1 mm 4 mps 704 mmHg 93%
    06:00 +8°C° 0 mm 3 mps 703 mmHg 91%
    07:00 +7°C° 0.5 mm 4 mps 703 mmHg 91%
    08:00 +7°C° 0.5 mm 5 mps 703 mmHg 90%
    09:00 +7°C° 0.5 mm 5 mps 703 mmHg 90%
    10:00 +8°C° 0.1 mm 6 mps 703 mmHg 87%
    11:00 +9°C° 0.1 mm 7 mps 703 mmHg 84%
    12:00 +10°C° 0 mm 7 mps 703 mmHg 82%
    13:00 +10°C° 0.1 mm 8 mps 704 mmHg 75%
    14:00 +10°C° 0.1 mm 8 mps 704 mmHg 68%
    15:00 +11°C° 0.1 mm 8 mps 704 mmHg 60%
    16:00 +10°C° 0 mm 7 mps 705 mmHg 65%
    17:00 +8°C° 0 mm 6 mps 705 mmHg 70%
    18:00 +7°C° 0 mm 5 mps 706 mmHg 74%
    19:00 +6°C° 0 mm 4 mps 706 mmHg 76%
    20:00 +6°C° 0 mm 4 mps 707 mmHg 77%
    21:00 +5°C° 0 mm 3 mps 708 mmHg 78%
    22:00 +5°C° 0 mm 3 mps 708 mmHg 79%
    23:00 +5°C° 0 mm 2 mps 709 mmHg 79%

    Tomorrow, 17 December, Monday

    Time Temperature Precipitation Wind Pressure Humidity
    00:00 +5°C° 0 mm 2 mps 709 mmHg 79%
    01:00 +4°C° 0 mm 2 mps 709 mmHg 80%
    02:00 +5°C° 0 mm 1 mps 709 mmHg 81%
    03:00 +5°C° 0 mm 1 mps 709 mmHg 82%
    04:00 +4°C° 0 mm 1 mps 709 mmHg 82%
    05:00 +4°C° 0 mm 1 mps 709 mmHg 82%
    06:00 +3°C° 0 mm 1 mps 709 mmHg 82%
    07:00 +4°C° 0 mm 1 mps 710 mmHg 77%
    08:00 +5°C° 0 mm 1 mps 710 mmHg 73%
    09:00 +6°C° 0 mm 1 mps 711 mmHg 68%
    10:00 +7°C° 0 mm 1 mps 710 mmHg 63%
    11:00 +8°C° 0 mm 1 mps 710 mmHg 57%
    12:00 +9°C° 0 mm 1 mps 710 mmHg 52%
    13:00 +10°C° 0 mm 1 mps 709 mmHg 51%
    14:00 +10°C° 0 mm 1 mps 709 mmHg 49%
    15:00 +10°C° 0 mm 1 mps 708 mmHg 48%
    16:00 +9°C° 0 mm 1 mps 708 mmHg 54%
    17:00 +7°C° 0 mm 1 mps 708 mmHg 60%
    18:00 +6°C° 0 mm 1 mps 708 mmHg 65%
    19:00 +6°C° 0 mm 1 mps 708 mmHg 65%
    20:00 +5°C° 0 mm 1 mps 708 mmHg 65%
    21:00 +5°C° 0 mm 1 mps 708 mmHg 65%
    22:00 +5°C° 0 mm 1 mps 708 mmHg 65%
    23:00 +4°C° 0 mm 2 mps 708 mmHg 66%

    Day after tomorrow, 18 December, Tuesday

    Time Temperature Precipitation Wind Pressure Humidity
    00:00 +4°C° 0 mm 2 mps 707 mmHg 66%
    01:00 +4°C° 0 mm 2 mps 707 mmHg 67%
    02:00 +4°C° 0 mm 2 mps 707 mmHg 67%
    03:00 +3°C° 0 mm 2 mps 706 mmHg 68%
    04:00 +3°C° 0 mm 2 mps 706 mmHg 69%
    05:00 +3°C° 0 mm 2 mps 706 mmHg 69%
    06:00 +3°C° 0 mm 2 mps 705 mmHg 70%
    07:00 +4°C° 0 mm 2 mps 705 mmHg 68%
    08:00 +4°C° 0 mm 2 mps 705 mmHg 66%
    09:00 +5°C° 0 mm 2 mps 706 mmHg 64%
    10:00 +6°C° 0 mm 2 mps 705 mmHg 60%
    11:00 +8°C° 0 mm 3 mps 704 mmHg 56%
    12:00 +9°C° 0 mm 3 mps 703 mmHg 52%
    13:00 +9°C° 0 mm 3 mps 703 mmHg 52%
    14:00 +9°C° 0 mm 3 mps 703 mmHg 52%
    15:00 +10°C° 0 mm 3 mps 702 mmHg 52%
    16:00 +9°C° 0.1 mm 2 mps 702 mmHg 57%
    17:00 +8°C° 0.1 mm 2 mps 702 mmHg 62%
    18:00 +8°C° 0.1 mm 1 mps 702 mmHg 67%
    19:00 +8°C° 0.7 mm 1 mps 703 mmHg 72%
    20:00 +8°C° 0.7 mm 1 mps 703 mmHg 76%
    21:00 +8°C° 0.7 mm 1 mps 703 mmHg 81%
    22:00 +7°C° 0.3 mm 2 mps 703 mmHg 84%
    23:00 +7°C° 0.3 mm 2 mps 703 mmHg 87%

    19 December, Wednesday

    Time Temperature Precipitation Wind Pressure Humidity
    00:00 +7°C° 0.3 mm 2 mps 704 mmHg 90%
    01:00 +7°C° 0 mm 2 mps 704 mmHg 90%
    02:00 +6°C° 0 mm 2 mps 704 mmHg 90%
    03:00 +6°C° 0 mm 2 mps 704 mmHg 90%
    04:00 +5°C° 0 mm 2 mps 704 mmHg 88%
    05:00 +4°C° 0 mm 2 mps 704 mmHg 86%
    06:00 +4°C° 0 mm 2 mps 704 mmHg 84%
    07:00 +4°C° 0 mm 2 mps 705 mmHg 80%
    08:00 +5°C° 0 mm 2 mps 706 mmHg 77%
    09:00 +5°C° 0 mm 2 mps 706 mmHg 74%
    10:00 +7°C° 0 mm 2 mps 706 mmHg 68%
    11:00 +8°C° 0 mm 3 mps 706 mmHg 63%
    12:00 +8°C° 0 mm 4 mps 706 mmHg 57%
    13:00 +10°C° 0 mm 4 mps 706 mmHg 57%
    14:00 +10°C° 0 mm 4 mps 706 mmHg 56%
    15:00 +10°C° 0 mm 4 mps 706 mmHg 55%
    16:00 +8°C° 0 mm 4 mps 706 mmHg 61%
    17:00 +8°C° 0 mm 3 mps 706 mmHg 67%
    18:00 +6°C° 0 mm 2 mps 706 mmHg 74%
    19:00 +6°C° 0 mm 2 mps 707 mmHg 76%
    20:00 +6°C° 0 mm 2 mps 707 mmHg 79%
    21:00 +5°C° 0 mm 2 mps 707 mmHg 81%
    22:00 +5°C° 0 mm 2 mps 708 mmHg 82%
    23:00 +5°C° 0 mm 2 mps 708 mmHg 83%

    20 December, Thursday

    Time Temperature Precipitation Wind Pressure Humidity
    00:00 +4°C° 0 mm 2 mps 708 mmHg 84%
    01:00 +4°C° 0 mm 2 mps 708 mmHg 84%
    02:00 +5°C° 0 mm 1 mps 708 mmHg 85%
    03:00 +5°C° 0 mm 1 mps 708 mmHg 85%
    04:00 +5°C° 0 mm 1 mps 708 mmHg 85%
    05:00 +5°C° 0 mm 1 mps 708 mmHg 85%
    06:00 +5°C° 0 mm 1 mps 708 mmHg 86%
    07:00 +5°C° 0 mm 1 mps 708 mmHg 84%
    08:00 +6°C° 0 mm 1 mps 709 mmHg 83%
    09:00 +7°C° 0 mm 1 mps 709 mmHg 81%
    10:00 +8°C° 0 mm 1 mps 709 mmHg 76%
    11:00 +8°C° 0 mm 2 mps 709 mmHg 70%
    12:00 +9°C° 0 mm 2 mps 709 mmHg 65%
    13:00 +10°C° 0 mm 2 mps 709 mmHg 63%
    14:00 +10°C° 0 mm 2 mps 708 mmHg 61%
    15:00 +12°C° 0 mm 2 mps 708 mmHg 59%
    16:00 +9°C° 0 mm 2 mps 708 mmHg 64%
    17:00 +8°C° 0 mm 2 mps 708 mmHg 70%
    18:00 +7°C° 0 mm 2 mps 709 mmHg 76%
    19:00 +8°C° 0 mm 1 mps 709 mmHg 78%
    20:00 +7°C° 0 mm 1 mps 709 mmHg 80%
    21:00 +7°C° 0 mm 1 mps 710 mmHg 82%
    22:00 +7°C° 0 mm 1 mps 710 mmHg 83%
    23:00 +6°C° 0 mm 1 mps 710 mmHg 84%

    21 December, Friday

    Time Temperature Precipitation Wind Pressure Humidity
    00:00 +6°C° 0 mm 1 mps 710 mmHg 85%
    01:00 +6°C° 0 mm 1 mps 710 mmHg 86%
    02:00 +6°C° 0 mm 1 mps 709 mmHg 86%
    03:00 +6°C° 0 mm 1 mps 709 mmHg 87%
    04:00 +6°C° 0 mm 1 mps 709 mmHg 87%
    05:00 +6°C° 0 mm 1 mps 709 mmHg 87%
    06:00 +6°C° 0 mm 1 mps 709 mmHg 87%
    07:00 +7°C° 0 mm 1 mps 710 mmHg 85%
    08:00 +7°C° 0 mm 1 mps 710 mmHg 84%
    09:00 +8°C° 0 mm 1 mps 710 mmHg 83%
    10:00 +9°C° 0 mm 1 mps 710 mmHg 78%
    11:00 +9°C° 0 mm 2 mps 710 mmHg 74%
    12:00 +12°C° 0 mm 2 mps 710 mmHg 70%
    13:00 +12°C° 0 mm 2 mps 710 mmHg 70%
    14:00 +13°C° 0 mm 2 mps 710 mmHg 69%
    15:00 +13°C° 0 mm 2 mps 709 mmHg 69%
    16:00 +12°C° 0 mm 2 mps 710 mmHg 75%
    17:00 +10°C° 0 mm 2 mps 710 mmHg 80%
    18:00 +10°C° 0 mm 1 mps 710 mmHg 85%
    19:00 +10°C° 0 mm 1 mps 710 mmHg 87%
    20:00 +9°C° 0 mm 1 mps 711 mmHg 88%
    21:00 +9°C° 0 mm 1 mps 711 mmHg 90%
    22:00 +9°C° 0 mm 1 mps 711 mmHg 91%
    23:00 +8°C° 0 mm 1 mps 710 mmHg 91%
    Show more